Torna al catalogo

FENGYUN 1C DEB

AttivoSSO
NORAD 35167·DEBRIS·🇨🇳 China

Lanciato May 10, 1999 da Taiyuan Satellite Launch Center

Loading…

Prossimi Passaggi (prossime 24 ore)

TLE

AggiornatoSource: Space-Track

Epoca: Sep 12, 2026, 22:11 UTC

1 35167U 99025DMX 26255.92460862  .00000912  00000-0  26746-3 0  9994
2 35167  98.4669 247.3955 0228571 112.3647 250.1931 14.32079238739436

Traccia FENGYUN 1C DEB in tempo reale con AllMySat

Download on the App Store